Weather History for Monroe, LA

Change the Weather History Date:

Friday, April 12, 2013

  Actual Average Record
Temperature  
Mean Temperature 58 °F 65 °F  
Max Temperature 75 °F 77 °F 90 °F (1948)
Min Temperature 41 °F 52 °F 36 °F (1951)
Degree Days  
Heating Degree Days 7 3  
Month to date heating degree days 82 50  
Since 1 July heating degree days 2109 2194  
Cooling Degree Days 0 3  
Month to date cooling degree days 20 29  
Year to date cooling degree days 41 72  
Growing Degree Days 8 (Base 50)    
Moisture  
Dew Point 45 °F    
Average Humidity 66    
Maximum Humidity 100    
Minimum Humidity 31    
Precipitation  
Precipitation 0.00 in 0.15 in 2.67 in (1955)
Month to date precipitation 4.31 1.76  
Year to date precipitation 20.52 16.12  
Snow  
Snow 0.00 in - - ()
Month to date snowfall 0.0  
Since 1 July snowfall 0.3  
Snow Depth 0.00 in    
Sea Level Pressure  
Sea Level Pressure 29.95 in    
Wind  
Wind Speed 2 mph (West)    
Max Wind Speed 12 mph    
Max Gust Speed 16 mph    
Visibility 8 miles    
Events      
T = Trace of Precipitation, MM = Missing Value Source: NWS Daily Summary

Daily Weather History Graph

Daily Weather History Graph

Search for Another Location

Airport:

Trip Planner

Search our weather history database for the weather conditions in past years. The results will help you decide how hot, cold, wet, or windy it might be!

Date:

Astronomy

Apr. 12, 2013 Rise Set
Actual Time 6:42 AM CDT 7:36 PM CDT
Civil Twilight 6:16 AM CDT 8:01 PM CDT
Nautical Twilight 5:47 AM CDT 8:30 PM CDT
Astronomical Twilight 5:16 AM CDT 9:01 PM CDT
Moon 7:59 AM CDT (4/12) 9:58 PM CDT (4/12)
Length of Visible Light 13h 44m
Length of Day
12h 53m
Waxing Crescent, 5% of the Moon is Illuminated
Apr 12
Waxing Crescent
Apr 18
First Quarter
Apr 25
Full
May 2
Last Quarter
May 9
New

Hourly Weather History & Observations

Time (CDT) Temp. Windchill Dew Point Humidity Pressure Visibility Wind Dir Wind Speed Gust Speed Precip Events Conditions
12:53 AM 45.0 °F - 44.1 °F 97% 29.89 in 1.8 mi Calm Calm - N/A   Clear
1:10 AM 44.6 °F - 42.8 °F 93% 29.89 in 3.0 mi Calm Calm - N/A   Clear
1:53 AM 45.0 °F - 44.1 °F 97% 29.89 in 6.0 mi Calm Calm - N/A   Clear
2:53 AM 46.0 °F - 45.0 °F 96% 29.89 in 6.0 mi Calm Calm - N/A   Clear
3:00 AM 44.6 °F - 44.6 °F 100% 29.89 in 1.5 mi Calm Calm - N/A   Clear
3:10 AM 44.6 °F - 44.6 °F 100% 29.89 in 3.0 mi Calm Calm - N/A   Clear
3:53 AM 45.0 °F 43.5 °F 44.1 °F 97% 29.90 in 6.0 mi WSW 3.5 mph - N/A   Clear
4:53 AM 45.0 °F - 43.0 °F 93% 29.92 in 9.0 mi Calm Calm - 0.01 in   Clear
5:53 AM 44.1 °F - 42.1 °F 93% 29.94 in 8.0 mi Calm Calm - N/A   Clear
6:53 AM 42.1 °F - 41.0 °F 96% 29.96 in 9.0 mi Calm Calm - N/A   Clear
7:53 AM 46.0 °F - 45.0 °F 96% 29.98 in 9.0 mi Calm Calm - N/A   Clear
8:53 AM 52.0 °F - 46.0 °F 80% 30.00 in 10.0 mi Calm Calm - N/A   Clear
9:53 AM 57.0 °F - 44.1 °F 62% 30.01 in 10.0 mi Calm Calm - N/A   Clear
10:53 AM 60.1 °F - 42.1 °F 51% 30.02 in 10.0 mi NW 3.5 mph - N/A   Clear
11:53 AM 64.0 °F - 41.0 °F 43% 30.02 in 10.0 mi SW 5.8 mph - N/A   Clear
12:53 PM 66.0 °F - 44.1 °F 45% 30.01 in 10.0 mi WSW 6.9 mph - N/A   Clear
1:53 PM 68.0 °F - 39.9 °F 36% 29.98 in 10.0 mi WSW 3.5 mph - N/A   Clear
2:53 PM 71.1 °F - 42.1 °F 35% 29.96 in 10.0 mi NW 3.5 mph - N/A   Clear
3:53 PM 73.0 °F - 41.0 °F 31% 29.94 in 10.0 mi Variable 5.8 mph - N/A   Clear
4:53 PM 73.0 °F - 41.0 °F 31% 29.93 in 10.0 mi NW 5.8 mph - N/A   Clear
5:53 PM 73.9 °F - 42.1 °F 32% 29.93 in 10.0 mi Calm Calm - N/A   Clear
6:53 PM 72.0 °F - 46.0 °F 40% 29.93 in 10.0 mi Calm Calm - N/A   Clear
7:53 PM 61.0 °F - 52.0 °F 72% 29.94 in 10.0 mi Calm Calm - N/A   Clear
8:53 PM 55.9 °F - 51.1 °F 84% 29.96 in 10.0 mi Calm Calm - N/A   Clear
9:53 PM 55.9 °F - 51.1 °F 84% 29.99 in 10.0 mi Calm Calm - N/A   Clear
10:53 PM 54.0 °F - 50.0 °F 86% 30.00 in 10.0 mi Calm Calm - N/A   Clear
11:53 PM 53.1 °F - 50.0 °F 89% 30.01 in 10.0 mi Calm Calm - N/A   Clear